Location: *
(51.4660°N, 0.3360°W)
Time: 21:11:06
(UTC+00:00)

Cosmos 1892 Rocket - Pass Details

Date: 19 September 2019
Orbit: 605 x 634 km, 82.5° (Epoch: 19 October)

Event Time Altitude Azimuth Distance (km) Brightness Sun altitude
Rises 19:45:42 0° 348° (NNW) 2,936 7.5 -15.7°
Reaches altitude 10° 19:47:58 10° 347° (NNW) 2,020 6.7 -16.0°
Maximum altitude 19:52:27 80° 262° (W) 643 3.6 -16.7°
Enters shadow 19:56:35 12° 176° (S) 1,879 5.7 -17.2°
